Regional Weather Roundup
Issued by NWS

Home | Current Version | Previous Version | Text Only | Print | Product List | Glossary Off
Versions: 1 2 3 4 5 6 7 8 9 10 11 12 13 14 15 16 17 18 19 20 21 22 23 24 25 26 27 28 29 30 31 32 33 34 35 36 37 38 39 40 41 42 43 44 45 46 47 48 49 50

000
ASUS43 KMKX 112000
RWRWI

WISCONSIN REGIONAL WEATHER ROUNDUP
NATIONAL WEATHER SERVICE MILWAUKEE/SULLIVAN WI
200 PM CST MON DEC 11 2017

NOTE: "FAIR" INDICATES FEW OR NO CLOUDS BELOW 12,000 FEET WITH NO
SIGNIFICANT WEATHER AND/OR OBSTRUCTIONS TO VISIBILITY.

WIZ001-002-006>008-014>016-023>028-112100-
NORTHWEST WISCONSIN

CITY           SKY/WX    TMP DP  RH WIND       PRES   REMARKS
SUPERIOR ARPT  CLOUDY    27  21  76 N13G25    29.89R WCI  17
ASHLAND        CLOUDY    28  21  75 NW14G24   29.84R WCI  17
HAYWARD        CLOUDY    28  22  78 N8G21     29.81R WCI  20
SIREN          CLOUDY    31  24  77 N15G21    29.85R WCI  20
CUMBERLAND     CLOUDY    28  23  80 N17G25    29.80R WCI  16
RICE LAKE      CLOUDY    30  25  81 NW15G22   29.82R WCI  19
CHETEK         CLOUDY    29  25  82 N10G22    29.80R WCI  20
LADYSMITH      CLOUDY    28  25  86 N14       29.78R WCI  17
EAU CLAIRE     CLOUDY    31  25  78 N15G21    29.80R WCI  20
MENOMONIE      CLOUDY    32  28  86 NW10G18   29.80R WCI  24
NEW RICHMOND   CLOUDY    31  25  79 N16G22    29.84R WCI  20
OSCEOLA        CLOUDY    33  26  77 N14G21    29.87R WCI  23
$$

WIZ003>005-009-010-017-018-112100-
NORTH CENTRAL WISCONSIN

CITY           SKY/WX    TMP DP  RH WIND       PRES   REMARKS
MANITOWISH WTR CLOUDY    24  24 100 NW8       29.70S WCI  15
ARBOR VITAE    CLOUDY    25  23  91 NW6       29.69F WCI  18
WOODRUFF       CLOUDY    25  23  91 NW6       29.69F WCI  18
RHINELANDER    CLOUDY    24  22  91 W7        29.70R WCI  16
EAGLE RIVER    CLOUDY    23  22  96 W6        29.68S WCI  16
LAND O LAKES   CLOUDY    24  21  89 W6        29.70S WCI  17
PHILLIPS       CLOUDY    24  23  96 NW3       29.73R
TOMAHAWK       CLOUDY    23  22  94 W5        29.72R FOG     WCI  17
MEDFORD        CLOUDY    25  23  93 NW6       29.72R FOG     WCI  18
MERRILL        CLOUDY    24  23  96 CALM      29.73R FOG
$$

WIZ029-030-035-036-043>047-112100-
CENTRAL WISCONSIN

CITY           SKY/WX    TMP DP  RH WIND       PRES   REMARKS
WAUSAU         CLOUDY    25  23  92 NW8       29.71R FOG     WCI  16
MOSINEE        NOT AVBL
MARSHFIELD     CLOUDY    28  24  85 NW13      29.71R FOG     WCI  17
STEVENS POINT  CLOUDY    26  24  92 NW3       29.72S
WAUPACA        CLOUDY    30  25  80 NW5       29.73R WCI  25
WAUTOMA        PTSUNNY   30  25  80 NW6       29.73R WCI  24
WISC RAPIDS    CLOUDY    30  24  78 NW9       29.74R WCI  22
CAMP DOUGLAS   CLOUDY    32  25  74 NW7       29.73R WCI  26
$$

WIZ011>013-019>022-031-037>040-048>050-112100-
NORTHEAST WISCONSIN

CITY           SKY/WX    TMP DP  RH WIND       PRES   REMARKS
ANTIGO         CLOUDY    22  22  99 W7        29.70S FOG     WCI  14
SHAWANO        CLOUDY    28  24  87 W5        29.72S WCI  22
OCONTO         CLOUDY    25  23  91 CALM      29.72F
STURGEON BAY   CLOUDY    26  24  92 SW7       29.72F FOG     WCI  18
GREEN BAY      CLOUDY    29  25  85 CALM      29.72F
MANITOWOC      CLOUDY    30  25  81 SW5       29.71F WCI  25
APPLETON       PTSUNNY   28  21  74 W6        29.70F WCI  22
CLINTONVILLE   CLOUDY    27  23  86 W6        29.72F WCI  20
OSHKOSH        PTSUNNY   32  24  72 VRB6      29.71S WCI  26
$$

WIZ032>034-041-042-053>061-112100-
SOUTHWEST WISCONSIN

CITY           SKY/WX    TMP DP  RH WIND       PRES   REMARKS
LA CROSSE      CLOUDY    31  27  85 NW7       29.77R FOG     WCI  24
SPARTA         CLOUDY    30  26  87 W3        29.75S
VIROQUA        CLOUDY    29  29  99 NW7       29.71S WCI  22
BOSCOBEL       SNOW      31  29  92 CALM      29.74S VSB 1/2
PRAIRIE DU CHI SNOW      31  28  91 NW3       29.74R VSB 1/2
PLATTEVILLE    CLOUDY    33  28  82 NW6       29.70S WCI  28
$$

WIZ056-057-062-063-064-067-068-112100-
SOUTH CENTRAL WISCONSIN

CITY           SKY/WX    TMP DP  RH WIND       PRES   REMARKS
REEDSBURG      DRIZZLE   30  28  95 W5        29.72R WCI  25
BARABOO/DELLS  CLOUDY    31  26  80 W5        29.70S WCI  26
LONE ROCK      NOT AVBL
MINERAL POINT  LGT SNOW  32  32 100 NW5       29.70R WCI  27
MADISON        FLURRIES  32  25  75 NW5       29.70R WCI  27
MIDDLETON      CLOUDY    33  28  80 NW5       29.71R WCI  29
WATERTOWN      CLOUDY    32  27  81 CALM      29.69S
MONROE         FLURRIES  32  27  80 CALM      29.68R
JANESVILLE     CLOUDY    36  27  69 CALM      29.69S
$$

WIZ051-052-058>065-066-070>072-112100-
SOUTHEAST WISCONSIN

CITY           SKY/WX    TMP DP  RH WIND       PRES   REMARKS
MILWAUKEE      CLOUDY    33  29  85 CALM      29.70F
WAUKESHA       CLOUDY    30  23  74 SE5       29.70F WCI  25
MILWAUKEE/TIMM PTSUNNY   32  21  64 S3        29.70F
RACINE         LGT SNOW  34  29  82 S7        29.70F WCI  28
BURLINGTON     FLURRIES  40  37  86 SE3       29.69F
KENOSHA        FLURRIES  35  24  64 CALM      29.69F
FOND DU LAC    CLOUDY    33  23  66 SW5       29.69F WCI  29
SHEBOYGAN      CLOUDY    30  25  81 S5        29.70F WCI  25
WEST BEND      CLOUDY    32  27  80 CALM      29.69S
JUNEAU         CLOUDY    31  25  78 SW3       29.70S
$$

LSZ147-162-112100-
LAKE SUPERIOR

STATION/POSITION TIME  TEMP    WIND        PRES    WAVE
                       AIR SEA DIR/SP/G            HT/PER
                 (UTC) (F)     (DEG/KT/KT) (MB)    (FT/S)
DEVILS ISLAND    1900   27     330/ 25/ 28 1010.1R
SAXON HARBOR     1940   30                 1008.8R
$$

LMZ867-665-643>646-112100-
LAKE MICHIGAN

STATION/POSITION TIME  TEMP    WIND        PRES    WAVE
                       AIR SEA DIR/SP/G            HT/PER
                 (UTC) (F)     (DEG/KT/KT) (MB)    (FT/S)
NORTHPORT PIER   1924   27     210/  3/  6 1006.4F
KEWAUNEE LAKESHO 1924   27     250/  2/  4 1006.0
SHEBOYGAN LAKESH 1900   31     190/ 10/ 10 1007.0F
PORT WASHINGTON  1940   33     200/  4/  6 1007.1F
MILWAUKEE LAKESH 1930   33     210/  6/  6   N/A
KENOSHA   LAKESH 1900   34     180/ 13/ 15 1006.1
$$

TC  - TEMPERATURE IN CELSIUS
VSB - VISIBILITY IN STATUTE MILES
WCI - WIND CHILL INDEX
HX  - HEAT INDEX





USA.gov is the U.S. government's official web portal to all federal, state and local government web resources and services.